,,Stat6,,Stat2,,Stat8,,Stat9,,Stat10,,Wind1,,Wind1,
time,status,PA1M_AVG,status,PR1M_SUM,status,RH1M_AVG,status,SR1M_AVG,status,TA1M_AVG,status,W1dAve1m,status,W1sAve1m,
2006-10-16, 17:39:00,VALID,920.045,VALID,0,VALID,74.3291,VALID,559.23,VALID,25.7103,VALID,28,VALID,1.39081,
2006-10-16, 17:40:00,VALID,920.017,VALID,0,VALID,71.8024,VALID,554.526,VALID,25.6657,VALID,346,VALID,1.14996,
2006-10-16, 17:41:00,VALID,919.998,VALID,0,VALID,73.2215,VALID,502.004,VALID,25.6944,VALID,25,VALID,1.13681,
2006-10-16, 17:42:00,VALID,920.002,VALID,0,VALID,73.9552,VALID,506.216,VALID,25.7924,VALID,23,VALID,1.26334,
2006-10-16, 17:43:00,VALID,919.994,VALID,0,VALID,73.1071,VALID,532.349,VALID,25.8253,VALID,51,VALID,1.05354,
2006-10-16, 17:44:00,VALID,919.963,VALID,0,VALID,74.057,VALID,594.414,VALID,25.9155,VALID,303,VALID,1.57994,
2006-10-16, 17:45:00,VALID,919.954,VALID,0,VALID,72.1012,VALID,628.613,VALID,25.8796,VALID,335,VALID,2.22135,
2006-10-16, 17:46:00,VALID,919.939,VALID,0,VALID,71.5952,VALID,645.356,VALID,25.6725,VALID,9,VALID,2.41225,
2006-10-16, 17:47:00,VALID,919.921,VALID,0,VALID,73.5928,VALID,576.041,VALID,25.5338,VALID,10,VALID,2.0748,
2006-10-16, 17:48:00,VALID,919.917,VALID,0,VALID,74.188,VALID,578.826,VALID,25.4533,VALID,8,VALID,2.41679,
2006-10-16, 17:49:00,VALID,919.909,VALID,0,VALID,73.5407,VALID,520.496,VALID,25.3852,VALID,325,VALID,3.42302,
2006-10-16, 17:50:00,VALID,919.92,VALID,0,VALID,73.4288,VALID,473.341,VALID,25.2688,VALID,326,VALID,3.06668,
2006-10-16, 17:51:00,VALID,919.92,VALID,0,VALID,72.4382,VALID,466.803,VALID,25.1519,VALID,14,VALID,1.94023,
2006-10-16, 17:52:00,VALID,919.911,VALID,0,VALID,73.0486,VALID,475.633,VALID,25.072,VALID,6,VALID,3.70948,
2006-10-16, 17:53:00,VALID,919.898,VALID,0,VALID,74.9763,VALID,542.147,VALID,24.9522,VALID,328,VALID,1.94913,
2006-10-16, 17:54:00,VALID,919.867,VALID,0,VALID,77.0529,VALID,695.942,VALID,25.1008,VALID,314,VALID,1.28296,
2006-10-16, 17:55:00,VALID,919.842,VALID,0,VALID,73.2368,VALID,761.896,VALID,25.3467,VALID,309,VALID,1.90625,
2006-10-16, 17:56:00,VALID,919.83,VALID,0,VALID,72.3785,VALID,777.637,VALID,25.5144,VALID,326,VALID,1.90532,
2006-10-16, 17:57:00,VALID,919.811,VALID,0,VALID,73.2228,VALID,782.935,VALID,25.654,VALID,28,VALID,2.23092,
2006-10-16, 17:58:00,VALID,919.794,VALID,0,VALID,71.4718,VALID,778.011,VALID,25.6466,VALID,27,VALID,2.83259,
2006-10-16, 17:59:00,VALID,919.778,VALID,0,VALID,70.6516,VALID,786.212,VALID,25.6014,VALID,24,VALID,2.66087,
2006-10-16, 18:00:00,VALID,919.781,VALID,0,VALID,70.6783,VALID,795.246,VALID,25.5887,VALID,4,VALID,1.19475,
2006-10-16, 18:01:00,VALID,919.763,VALID,0,VALID,73.5572,VALID,777.009,VALID,25.7856,VALID,291,VALID,2.04869,
2006-10-16, 18:02:00,VALID,919.739,VALID,0,VALID,70.63,VALID,728.342,VALID,25.9187,VALID,320,VALID,2.17478,
2006-10-16, 18:03:00,VALID,919.733,VALID,0,VALID,72.4751,VALID,545.509,VALID,25.9769,VALID,341,VALID,1.25632,
2006-10-16, 18:04:00,VALID,919.706,VALID,0,VALID,73.9018,VALID,519.817,VALID,26.0318,VALID,307,VALID,2.07432,
2006-10-16, 18:05:00,VALID,919.707,VALID,0,VALID,71.5112,VALID,543.098,VALID,26.0739,VALID,353,VALID,1.55178,
2006-10-16, 18:06:00,VALID,919.688,VALID,0,VALID,71.702,VALID,592.478,VALID,26.0545,VALID,16,VALID,1.0734,
2006-10-16, 18:07:00,VALID,919.677,VALID,0,VALID,70.5613,VALID,515.13,VALID,26.0574,VALID,49,VALID,1.92285,
2006-10-16, 18:08:00,VALID,919.663,VALID,0,VALID,70.7737,VALID,493.65,VALID,26.0506,VALID,58,VALID,1.39788,
2006-10-16, 18:09:00,VALID,919.626,VALID,0,VALID,72.3454,VALID,471.677,VALID,26.1094,VALID,58,VALID,1.10789,
2006-10-16, 18:10:00,VALID,919.639,VALID,0,VALID,73.1859,VALID,450.213,VALID,26.2384,VALID,348,VALID,1.31174,
2006-10-16, 18:11:00,VALID,919.648,VALID,0,VALID,71.571,VALID,425.896,VALID,26.2898,VALID,320,VALID,1.77035,
2006-10-16, 18:12:00,VALID,919.622,VALID,0,VALID,71.8787,VALID,408.151,VALID,26.0923,VALID,313,VALID,2.57649,
2006-10-16, 18:13:00,VALID,919.618,VALID,0,VALID,72.718,VALID,400.459,VALID,25.9148,VALID,291,VALID,1.77762,
2006-10-16, 18:14:00,VALID,919.604,VALID,0,VALID,72.9049,VALID,402.802,VALID,25.9174,VALID,13,VALID,0.878227,
2006-10-16, 18:15:00,VALID,919.576,VALID,0,VALID,72.8515,VALID,391.714,VALID,25.9281,VALID,25,VALID,1.95549,
2006-10-16, 18:16:00,VALID,919.566,VALID,0,VALID,71.8228,VALID,371.439,VALID,25.7759,VALID,44,VALID,2.34319,
2006-10-16, 18:17:00,VALID,919.564,VALID,0,VALID,73.9146,VALID,349.381,VALID,25.6492,VALID,46,VALID,1.15199,
2006-10-16, 18:18:00,VALID,919.554,VALID,0,VALID,73.9641,VALID,338.428,VALID,25.6004,VALID,12,VALID,2.1238,
2006-10-16, 18:19:00,VALID,919.55,VALID,0,VALID,74.277,VALID,336.662,VALID,25.4353,VALID,359,VALID,2.09189,
2006-10-16, 18:20:00,VALID,919.548,VALID,0,VALID,74.6877,VALID,341.518,VALID,25.2814,VALID,14,VALID,2.58049,
2006-10-16, 18:21:00,VALID,919.534,VALID,0,VALID,74.8301,VALID,345.339,VALID,25.1322,VALID,18,VALID,1.93655,
2006-10-16, 18:22:00,VALID,919.536,VALID,0,VALID,74.9001,VALID,339.396,VALID,25.0588,VALID,14,VALID,1.78068,
2006-10-16, 18:23:00,VALID,919.518,VALID,0,VALID,75.5854,VALID,327.407,VALID,25.0155,VALID,306,VALID,1.8247,
2006-10-16, 18:24:00,VALID,919.514,VALID,0,VALID,77.2284,VALID,317.762,VALID,25.0872,VALID,294,VALID,1.4011,
2006-10-16, 18:25:00,VALID,919.501,VALID,0,VALID,76.3815,VALID,312.719,VALID,25.2042,VALID,285,VALID,1.52947,
2006-10-16, 18:26:00,VALID,919.484,VALID,0,VALID,77.1482,VALID,312.345,VALID,25.3305,VALID,287,VALID,1.48728,
2006-10-16, 18:27:00,VALID,919.474,VALID,0,VALID,76.4031,VALID,314.468,VALID,25.4204,VALID,307,VALID,1.24818,
2006-10-16, 18:28:00,VALID,919.455,VALID,0,VALID,75.3616,VALID,316.489,VALID,25.4695,VALID,336,VALID,1.0558,
2006-10-16, 18:29:00,VALID,919.437,VALID,0,VALID,75.958,VALID,317.728,VALID,25.4307,VALID,322,VALID,1.43867,
2006-10-16, 18:30:00,VALID,919.42,VALID,0,VALID,75.7736,VALID,320.258,VALID,25.3858,VALID,338,VALID,1.37766,
2006-10-16, 18:31:00,VALID,919.402,VALID,0,VALID,75.3642,VALID,325.37,VALID,25.262,VALID,344,VALID,1.63891,
2006-10-16, 18:32:00,VALID,919.391,VALID,0,VALID,75.9835,VALID,329.802,VALID,25.2168,VALID,321,VALID,1.37128,
2006-10-16, 18:33:00,VALID,919.382,VALID,0,VALID,75.5193,VALID,331.177,VALID,25.2307,VALID,278,VALID,1.40803,
2006-10-16, 18:34:00,VALID,919.371,VALID,0,VALID,74.7856,VALID,331.517,VALID,25.3276,VALID,279,VALID,0.675249,
2006-10-16, 18:35:00,VALID,919.369,VALID,0,VALID,73.8001,VALID,333.13,VALID,25.5345,VALID,278,VALID,0.289971,
2006-10-16, 18:36:00,VALID,919.372,VALID,0,VALID,72.7434,VALID,334.709,VALID,25.7284,VALID,273,VALID,0.188033,
2006-10-16, 18:37:00,VALID,919.361,VALID,0,VALID,73.2228,VALID,333.877,VALID,25.9058,VALID,258,VALID,0.338118,
2006-10-16, 18:38:00,VALID,919.351,VALID,0,VALID,72.1725,VALID,330.838,VALID,26.0516,VALID,202,VALID,0.39098,
2006-10-16, 18:39:00,VALID,919.334,VALID,0,VALID,71.5812,VALID,326.983,VALID,26.1233,VALID,165,VALID,0.349657,
2006-10-16, 18:40:00,VALID,919.326,VALID,0,VALID,72.5221,VALID,322.84,VALID,26.2921,VALID,90,VALID,0.536395,
2006-10-16, 18:41:00,VALID,919.287,VALID,0,VALID,75.5486,VALID,319.392,VALID,26.4644,VALID,260,VALID,0.544695,
2006-10-16, 18:42:01,VALID,919.294,VALID,0,VALID,77.545,VALID,315.555,VALID,26.5022,VALID,207,VALID,0.460366,
2006-10-16, 18:43:00,VALID,919.292,VALID,0,VALID,78.3728,VALID,310.936,VALID,26.4411,VALID,199,VALID,0.87534,
2006-10-16, 18:44:00,VALID,919.281,VALID,0,VALID,79.0658,VALID,308.491,VALID,26.2885,VALID,247,VALID,1.37957,
2006-10-16, 18:45:00,VALID,919.276,VALID,0,VALID,79.7843,VALID,308.576,VALID,26.1534,VALID,273,VALID,1.37147,
2006-10-16, 18:46:00,VALID,919.274,VALID,0,VALID,81.1385,VALID,312.091,VALID,26.1276,VALID,278,VALID,1.2606,
2006-10-16, 18:47:00,VALID,919.258,VALID,0,VALID,81.2136,VALID,314.264,VALID,26.156,VALID,258,VALID,0.394531,
2006-10-16, 18:48:00,VALID,919.237,VALID,0,VALID,80.4938,VALID,311.361,VALID,26.208,VALID,262,VALID,0.230097,
2006-10-16, 18:49:00,VALID,919.221,VALID,0,VALID,79.3087,VALID,305.434,VALID,26.2342,VALID,353,VALID,0.349927,
2006-10-16, 18:50:00,VALID,919.207,VALID,0,VALID,78.7606,VALID,301.325,VALID,26.1495,VALID,120,VALID,0.392805,
2006-10-16, 18:51:00,VALID,919.215,VALID,0,VALID,80.1569,VALID,301.546,VALID,26.0726,VALID,303,VALID,0.384266,
2006-10-16, 18:52:01,VALID,919.201,VALID,0,VALID,80.1416,VALID,306.725,VALID,26.0952,VALID,332,VALID,0.429306,
2006-10-16, 18:53:00,VALID,919.196,VALID,0,VALID,80.2065,VALID,320.445,VALID,26.0105,VALID,270,VALID,0.957031,
2006-10-16, 18:54:00,VALID,919.191,VALID,0,VALID,81.8684,VALID,348.328,VALID,25.8602,VALID,256,VALID,0.938565,
2006-10-16, 18:55:00,VALID,919.166,VALID,0,VALID,82.1647,VALID,385.023,VALID,25.802,VALID,241,VALID,0.40282,
2006-10-16, 18:56:00,VALID,919.14,VALID,0,VALID,81.3484,VALID,406.742,VALID,25.7691,VALID,152,VALID,0.357422,
2006-10-16, 18:57:00,VALID,919.118,VALID,0,VALID,81.1131,VALID,410.851,VALID,25.792,VALID,154,VALID,0.403343,
2006-10-16, 18:58:00,VALID,919.107,VALID,0,VALID,81.4844,VALID,412.295,VALID,25.8279,VALID,234,VALID,0.352865,
2006-10-16, 18:59:01,VALID,919.09,VALID,0,VALID,81.7069,VALID,425.794,VALID,25.9371,VALID,273,VALID,0.829723,
2006-10-16, 19:00:00,VALID,919.061,VALID,0,VALID,80.9071,VALID,471.32,VALID,26.0571,VALID,282,VALID,1.07758,
2006-10-16, 19:01:01,VALID,919.046,VALID,0,VALID,80.7812,VALID,492.546,VALID,26.1217,VALID,250,VALID,0.848722,
2006-10-16, 19:02:01,VALID,919.026,VALID,0,VALID,81.5582,VALID,472.39,VALID,26.1896,VALID,254,VALID,0.914435,
2006-10-16, 19:03:00,VALID,919.006,VALID,0,VALID,79.3647,VALID,457.701,VALID,26.2668,VALID,44,VALID,0.714286,
2006-10-16, 19:04:01,VALID,918.988,VALID,0,VALID,79.3469,VALID,453.626,VALID,26.2671,VALID,282,VALID,0.785528,
2006-10-16, 19:05:00,VALID,918.97,VALID,0,VALID,80.1187,VALID,449.839,VALID,26.2865,VALID,274,VALID,0.542039,
2006-10-16, 19:06:00,VALID,918.94,VALID,0,VALID,79.1002,VALID,464.646,VALID,26.3667,VALID,266,VALID,0.782965,
2006-10-16, 19:07:00,VALID,918.918,VALID,0,VALID,78.2685,VALID,498.608,VALID,26.4,VALID,263,VALID,0.531795,
2006-10-16, 19:08:01,VALID,918.88,VALID,0,VALID,77.695,VALID,500.697,VALID,26.5092,VALID,283,VALID,0.899601,
2006-10-16, 19:09:00,VALID,918.858,VALID,0,VALID,77.297,VALID,509.731,VALID,26.506,VALID,178,VALID,0.771341,
2006-10-16, 19:10:00,VALID,918.839,VALID,0,VALID,77.1864,VALID,528.919,VALID,26.5257,VALID,17,VALID,0.317116,
2006-10-16, 19:11:01,VALID,918.813,VALID,0,VALID,77.4763,VALID,590.406,VALID,26.7779,VALID,316,VALID,0.463956,
2006-10-16, 19:12:00,VALID,918.815,VALID,0,VALID,75.8741,VALID,544.609,VALID,26.9288,VALID,232,VALID,0.382626,
2006-10-16, 19:13:00,VALID,918.795,VALID,0,VALID,74.8009,VALID,513.806,VALID,26.9479,VALID,93,VALID,0.350836,
2006-10-16, 19:14:00,VALID,918.791,VALID,0,VALID,74.764,VALID,491.68,VALID,27.0125,VALID,52,VALID,0.15734,
2006-10-16, 19:15:01,VALID,918.791,VALID,0,VALID,74.2948,VALID,489.642,VALID,27.0319,VALID,99,VALID,0.49628,
2006-10-16, 19:16:00,VALID,918.781,VALID,0,VALID,74.3571,VALID,525.964,VALID,26.9931,VALID,64,VALID,0.489062,
2006-10-16, 19:17:00,VALID,918.768,VALID,0,VALID,74.1778,VALID,500.272,VALID,26.9281,VALID,98,VALID,0.657522,
2006-10-16, 19:18:00,VALID,918.76,VALID,0,VALID,74.7462,VALID,546.409,VALID,26.5897,VALID,109,VALID,0.553571,
2006-10-16, 19:19:00,VALID,918.748,VALID,0,VALID,75.2701,VALID,597.063,VALID,26.3893,VALID,193,VALID,0.839026,
2006-10-16, 19:20:00,VALID,918.718,VALID,0,VALID,77.0402,VALID,659.366,VALID,26.3237,VALID,272,VALID,0.511628,
2006-10-16, 19:21:00,VALID,918.7,VALID,0,VALID,77.6594,VALID,676.211,VALID,26.547,VALID,253,VALID,0.427778,
2006-10-16, 19:22:00,VALID,918.677,VALID,0,VALID,75.9351,VALID,698.574,VALID,26.5794,VALID,137,VALID,0.198103,
2006-10-16, 19:23:00,VALID,918.66,VALID,0,VALID,75.2777,VALID,856.751,VALID,26.4817,VALID,148,VALID,0.709847,
2006-10-16, 19:24:01,VALID,918.639,VALID,0,VALID,77.4064,VALID,864.019,VALID,26.5823,VALID,243,VALID,0.977706,
2006-10-16, 19:25:00,VALID,918.603,VALID,0,VALID,74.5237,VALID,872.526,VALID,26.87,VALID,266,VALID,0.547247,
2006-10-16, 19:26:00,VALID,918.59,VALID,0,VALID,74.3088,VALID,868.213,VALID,27.0309,VALID,192,VALID,1.14941,
2006-10-16, 19:27:00,VALID,918.584,VALID,0,VALID,74.0939,VALID,860.962,VALID,27.0442,VALID,149,VALID,0.973656,
2006-10-16, 19:28:00,VALID,918.563,VALID,0,VALID,72.3123,VALID,865.92,VALID,26.6524,VALID,141,VALID,0.573864,
2006-10-16, 19:29:00,VALID,918.544,VALID,0,VALID,74.3647,VALID,831.806,VALID,26.833,VALID,252,VALID,0.88121,
2006-10-16, 19:30:01,VALID,918.542,VALID,0,VALID,73.6145,VALID,771.558,VALID,26.9145,VALID,174,VALID,0.965116,
2006-10-16, 19:31:00,VALID,918.514,VALID,0,VALID,72.896,VALID,681.882,VALID,26.5877,VALID,133,VALID,0.929276,
2006-10-16, 19:32:00,VALID,918.495,VALID,0,VALID,74.2096,VALID,790.729,VALID,26.2432,VALID,144,VALID,0.716797,
2006-10-16, 19:33:00,VALID,918.466,VALID,0,VALID,76.131,VALID,804.552,VALID,26.4278,VALID,162,VALID,0.384909,
2006-10-16, 19:34:00,VALID,918.434,VALID,0,VALID,73.4377,VALID,815.861,VALID,26.5089,VALID,139,VALID,0.790698,
2006-10-16, 19:35:00,VALID,918.411,VALID,0,VALID,73.7073,VALID,798.405,VALID,26.3476,VALID,154,VALID,0.781783,
2006-10-16, 19:36:01,VALID,918.381,VALID,0,VALID,75.2841,VALID,812.057,VALID,26.3722,VALID,279,VALID,1.26762,
2006-10-16, 19:37:00,VALID,918.354,VALID,0,VALID,75.4824,VALID,805.333,VALID,26.4245,VALID,274,VALID,0.895833,
2006-10-16, 19:38:00,VALID,918.354,VALID,0,VALID,76.0559,VALID,718.391,VALID,26.5629,VALID,164,VALID,0.35103,
2006-10-16, 19:39:00,VALID,918.345,VALID,0,VALID,75.5524,VALID,679.301,VALID,26.8499,VALID,77,VALID,0.622332,
2006-10-16, 19:40:00,VALID,918.346,VALID,0,VALID,75.1595,VALID,751.945,VALID,27.0471,VALID,121,VALID,0.678597,
2006-10-16, 19:41:01,VALID,918.319,VALID,0,VALID,74.0557,VALID,773.256,VALID,26.9307,VALID,177,VALID,1.46307,
2006-10-16, 19:42:00,VALID,918.309,VALID,0,VALID,74.3533,VALID,793.956,VALID,26.7235,VALID,169,VALID,0.810742,
2006-10-16, 19:43:00,VALID,918.269,VALID,0,VALID,73.8027,VALID,774.564,VALID,26.7568,VALID,88,VALID,0.476744,
2006-10-16, 19:44:00,VALID,918.25,VALID,0,VALID,75.1226,VALID,766.532,VALID,26.9174,VALID,271,VALID,0.983259,
2006-10-16, 19:45:01,VALID,918.226,VALID,0,VALID,76.0699,VALID,765.173,VALID,27.1512,VALID,263,VALID,1.07546,
2006-10-16, 19:46:00,VALID,918.206,VALID,0,VALID,73.2164,VALID,759.298,VALID,27.24,VALID,166,VALID,0.675495,
2006-10-16, 19:47:01,VALID,918.173,VALID,0,VALID,73.2215,VALID,763.407,VALID,27.2339,VALID,200,VALID,0.763417,
2006-10-16, 19:48:01,VALID,918.158,VALID,0,VALID,74.3863,VALID,761.064,VALID,27.1624,VALID,176,VALID,0.479469,
2006-10-16, 19:49:00,VALID,918.127,VALID,0,VALID,74.0595,VALID,740.636,VALID,27.4182,VALID,84,VALID,0.487216,
2006-10-16, 19:50:01,VALID,918.11,VALID,0,VALID,72.03,VALID,713.433,VALID,27.5902,VALID,128,VALID,0.709896,
2006-10-16, 19:51:01,VALID,918.093,VALID,0,VALID,71.8584,VALID,662.303,VALID,27.3665,VALID,175,VALID,0.870536,
2006-10-16, 19:52:00,VALID,918.054,VALID,0,VALID,72.629,VALID,748.04,VALID,26.9397,VALID,115,VALID,1.29149,
2006-10-16, 19:53:01,VALID,918.056,VALID,0,VALID,75.2459,VALID,739.974,VALID,26.9297,VALID,196,VALID,0.835574,
2006-10-16, 19:54:00,VALID,918.032,VALID,0,VALID,74.5542,VALID,737.019,VALID,26.8615,VALID,199,VALID,1.11719,
2006-10-16, 19:55:00,VALID,918.018,VALID,0,VALID,74.2592,VALID,734.115,VALID,26.5899,VALID,137,VALID,0.927326,
2006-10-16, 19:56:01,VALID,917.982,VALID,0,VALID,75.7215,VALID,757.787,VALID,26.632,VALID,93,VALID,0.802989,
2006-10-16, 19:57:01,VALID,917.951,VALID,0,VALID,75.499,VALID,733.215,VALID,26.8582,VALID,133,VALID,0.981179,
2006-10-16, 19:58:00,VALID,917.943,VALID,0,VALID,75.6134,VALID,747.174,VALID,26.9455,VALID,170,VALID,0.603016,
2006-10-16, 19:59:00,VALID,917.921,VALID,0,VALID,74.4257,VALID,743.183,VALID,26.9229,VALID,160,VALID,1.05469,
2006-10-16, 20:00:01,VALID,917.896,VALID,0,VALID,75.1251,VALID,713.161,VALID,26.8715,VALID,108,VALID,0.802871,
2006-10-16, 20:01:00,VALID,917.882,VALID,0,VALID,75.6592,VALID,662.932,VALID,27.1595,VALID,187,VALID,0.940387,
2006-10-16, 20:02:00,VALID,917.84,VALID,0,VALID,72.7663,VALID,655.681,VALID,26.9911,VALID,209,VALID,1.35398,
2006-10-16, 20:03:00,VALID,917.844,VALID,0,VALID,75.3756,VALID,570.709,VALID,26.6866,VALID,195,VALID,0.824505,
2006-10-16, 20:04:00,VALID,917.811,VALID,0,VALID,75.5282,VALID,475.293,VALID,26.7357,VALID,152,VALID,0.928013,
2006-10-16, 20:05:01,VALID,917.805,VALID,0,VALID,76.632,VALID,439.022,VALID,26.8091,VALID,210,VALID,0.457209,
2006-10-16, 20:06:00,VALID,917.786,VALID,0,VALID,74.9929,VALID,421.515,VALID,26.8805,VALID,204,VALID,0.821911,
2006-10-16, 20:07:00,VALID,917.763,VALID,0,VALID,74.2185,VALID,354.56,VALID,26.9581,VALID,262,VALID,1.34121,
2006-10-16, 20:08:00,VALID,917.762,VALID,0,VALID,74.591,VALID,334.2,VALID,26.8844,VALID,243,VALID,1.04325,
2006-10-16, 20:09:01,VALID,917.735,VALID,0,VALID,75.8309,VALID,350.994,VALID,26.7308,VALID,276,VALID,1.33155,
2006-10-16, 20:10:00,VALID,917.722,VALID,0,VALID,75.3604,VALID,414.061,VALID,26.7431,VALID,268,VALID,1.21302,
2006-10-16, 20:11:01,VALID,917.697,VALID,0,VALID,76.0852,VALID,532.315,VALID,26.8982,VALID,269,VALID,1.11547,
2006-10-16, 20:12:00,VALID,917.679,VALID,0,VALID,75.663,VALID,699.118,VALID,27.1403,VALID,208,VALID,0.583333,
2006-10-16, 20:13:00,VALID,917.647,VALID,0,VALID,74.1714,VALID,692.699,VALID,27.2053,VALID,172,VALID,0.735518,
2006-10-16, 20:14:00,VALID,917.616,VALID,0,VALID,75.9682,VALID,644.287,VALID,27.2179,VALID,261,VALID,0.408668,
2006-10-16, 20:15:01,VALID,917.577,VALID,0,VALID,75.3477,VALID,631.653,VALID,27.4991,VALID,297,VALID,0.291726,
2006-10-16, 20:16:00,VALID,917.558,VALID,0,VALID,73.2826,VALID,699.678,VALID,27.8325,VALID,304,VALID,0.572493,
2006-10-16, 20:17:00,VALID,917.531,VALID,0,VALID,73.5611,VALID,692.088,VALID,28.1533,VALID,271,VALID,1.55391,
2006-10-16, 20:18:00,VALID,917.542,VALID,0,VALID,72.3861,VALID,637.121,VALID,28.3142,VALID,290,VALID,1.18641,
2006-10-16, 20:19:01,VALID,917.531,VALID,0,VALID,70.8207,VALID,646.766,VALID,28.3527,VALID,26,VALID,0.667259,
2006-10-16, 20:20:01,VALID,917.513,VALID,0,VALID,69.4843,VALID,706.403,VALID,28.0843,VALID,136,VALID,0.815234,
2006-10-16, 20:21:01,VALID,917.511,VALID,0,VALID,71.7923,VALID,692.139,VALID,27.7225,VALID,141,VALID,0.687145,
2006-10-16, 20:22:01,VALID,917.5,VALID,0,VALID,71.9893,VALID,693.565,VALID,27.5731,VALID,112,VALID,0.531605,
2006-10-16, 20:23:00,VALID,917.466,VALID,0,VALID,73.1643,VALID,691.663,VALID,27.7538,VALID,330,VALID,0.584936,
2006-10-16, 20:24:00,VALID,917.456,VALID,0,VALID,73.5305,VALID,697.878,VALID,27.9931,VALID,61,VALID,0.344131,
2006-10-16, 20:25:00,VALID,917.443,VALID,0,VALID,73.2737,VALID,716.353,VALID,28.2722,VALID,299,VALID,0.494368,
2006-10-16, 20:26:01,VALID,917.418,VALID,0,VALID,72.0021,VALID,723.57,VALID,28.4648,VALID,20,VALID,0.62157,
2006-10-16, 20:27:00,VALID,917.416,VALID,0,VALID,69.97,VALID,702.208,VALID,28.3333,VALID,156,VALID,0.65346,
2006-10-16, 20:28:00,VALID,917.401,VALID,0,VALID,71.4324,VALID,622.229,VALID,28.1677,VALID,237,VALID,0.720656,
2006-10-16, 20:29:00,VALID,917.393,VALID,0,VALID,69.8518,VALID,603.176,VALID,27.89,VALID,160,VALID,0.642882,
2006-10-16, 20:30:01,VALID,917.381,VALID,0,VALID,71.8304,VALID,552.862,VALID,27.6475,VALID,189,VALID,0.79524,
2006-10-16, 20:31:01,VALID,917.339,VALID,0,VALID,73.9451,VALID,568.96,VALID,27.5624,VALID,270,VALID,1.25156,
2006-10-16, 20:32:01,VALID,917.319,VALID,0,VALID,71.9804,VALID,628.376,VALID,27.609,VALID,335,VALID,0.898065,
2006-10-16, 20:33:01,VALID,917.312,VALID,0,VALID,72.9952,VALID,529.921,VALID,27.5466,VALID,276,VALID,0.608994,
2006-10-16, 20:34:01,VALID,917.284,VALID,0,VALID,75.2586,VALID,439.668,VALID,27.4338,VALID,276,VALID,1.89653,
2006-10-16, 20:35:01,VALID,917.286,VALID,0,VALID,75.958,VALID,412.379,VALID,27.3077,VALID,280,VALID,1.21205,
2006-10-16, 20:36:00,VALID,917.296,VALID,0,VALID,75.9046,VALID,386.62,VALID,27.2944,VALID,260,VALID,0.688262,
2006-10-16, 20:37:01,VALID,917.282,VALID,0,VALID,76.1844,VALID,368.518,VALID,27.1936,VALID,226,VALID,0.965554,
2006-10-16, 20:38:00,VALID,917.284,VALID,0,VALID,76.1615,VALID,357.803,VALID,27.1099,VALID,283,VALID,0.96875,
2006-10-16, 20:39:01,VALID,917.293,VALID,0,VALID,77.1177,VALID,358.584,VALID,27.0585,VALID,291,VALID,0.718555,
2006-10-16, 20:40:01,VALID,917.288,VALID,0,VALID,76.2759,VALID,356.479,VALID,27.0352,VALID,307,VALID,0.700893,
2006-10-16, 20:41:01,VALID,917.279,VALID,0,VALID,77.9049,VALID,349.262,VALID,27.0484,VALID,248,VALID,0.836496,
2006-10-16, 20:42:01,VALID,917.265,VALID,0,VALID,77.8553,VALID,330.379,VALID,27.075,VALID,277,VALID,1.27539,
2006-10-16, 20:43:01,VALID,917.258,VALID,0,VALID,77.5107,VALID,322.228,VALID,27.0323,VALID,211,VALID,1.432,
2006-10-16, 20:44:01,VALID,917.25,VALID,0,VALID,76.9435,VALID,335.796,VALID,26.8969,VALID,100,VALID,0.457667,
2006-10-16, 20:45:01,VALID,917.243,VALID,0,VALID,76.6994,VALID,351.996,VALID,26.9076,VALID,56,VALID,0.388626,
2006-10-16, 20:46:01,VALID,917.231,VALID,0,VALID,78.1452,VALID,350.077,VALID,26.881,VALID,258,VALID,0.656994,
2006-10-16, 20:47:01,VALID,917.22,VALID,0,VALID,77.5615,VALID,348.752,VALID,26.9425,VALID,147,VALID,0.338956,
2006-10-16, 20:48:01,VALID,917.19,VALID,0,VALID,76.9969,VALID,358.618,VALID,26.9741,VALID,37,VALID,0.424665,
2006-10-16, 20:49:01,VALID,917.19,VALID,0,VALID,77.4712,VALID,367.261,VALID,26.9069,VALID,124,VALID,0.848028,
2006-10-16, 20:50:01,VALID,917.178,VALID,0,VALID,77.751,VALID,380.048,VALID,26.7654,VALID,102,VALID,0.946057,
2006-10-16, 20:51:01,VALID,917.179,VALID,0,VALID,78.4669,VALID,336.051,VALID,26.6335,VALID,147,VALID,0.885719,
2006-10-16, 20:52:01,VALID,917.188,VALID,0,VALID,79.8936,VALID,290.78,VALID,26.5291,VALID,247,VALID,0.479367,
2006-10-16, 20:53:01,VALID,917.144,VALID,0,VALID,78.617,VALID,258.55,VALID,26.4713,VALID,239,VALID,1.53924,
2006-10-16, 20:54:00,VALID,917.188,VALID,0,VALID,79.4562,VALID,234.658,VALID,26.2324,VALID,224,VALID,1.10671,
2006-10-16, 20:55:01,VALID,917.166,VALID,0,VALID,78.8306,VALID,217.813,VALID,25.7397,VALID,151,VALID,1.41006,
2006-10-16, 20:56:01,VALID,917.158,VALID,0,VALID,81.1818,VALID,233.69,VALID,25.4879,VALID,114,VALID,0.86875,
2006-10-16, 20:57:01,VALID,917.134,VALID,0,VALID,82.3504,VALID,210.24,VALID,25.53,VALID,103,VALID,0.607558,
2006-10-16, 20:58:01,VALID,917.121,VALID,0,VALID,82.901,VALID,183.155,VALID,25.5752,VALID,122,VALID,0.882254,
2006-10-16, 20:59:01,VALID,917.114,VALID,0,VALID,82.6111,VALID,183.631,VALID,25.4886,VALID,82,VALID,0.560594,
2006-10-16, 21:00:01,VALID,917.132,VALID,0,VALID,82.5195,VALID,204.891,VALID,25.5041,VALID,146,VALID,0.477983,
2006-10-16, 21:01:01,VALID,917.128,VALID,0,VALID,81.7349,VALID,241.399,VALID,25.4505,VALID,121,VALID,0.788885,
2006-10-16, 21:02:01,VALID,917.106,VALID,0,VALID,81.8824,VALID,257.073,VALID,25.4114,VALID,107,VALID,0.499645,
2006-10-16, 21:03:01,VALID,917.084,VALID,0,VALID,82.386,VALID,257.412,VALID,25.476,VALID,85,VALID,0.318824,
2006-10-16, 21:04:01,VALID,917.04,VALID,0,VALID,82.5131,VALID,299.763,VALID,25.4999,VALID,171,VALID,0.711868,
2006-10-16, 21:05:01,VALID,917.018,VALID,0,VALID,83.3613,VALID,330.022,VALID,25.4776,VALID,288,VALID,0.873884,
2006-10-16, 21:06:01,VALID,916.988,VALID,0,VALID,83.2558,VALID,321.532,VALID,25.5138,VALID,309,VALID,0.816315,
2006-10-16, 21:07:01,VALID,916.972,VALID,0,VALID,82.9251,VALID,346.732,VALID,25.5823,VALID,24,VALID,0.561914,
2006-10-16, 21:08:01,VALID,917.015,VALID,0,VALID,83.9818,VALID,280.252,VALID,25.6624,VALID,359,VALID,0.437691,
2006-10-16, 21:09:01,VALID,917.027,VALID,0,VALID,83.0612,VALID,261.335,VALID,25.7671,VALID,164,VALID,0.385671,
2006-10-16, 21:10:01,VALID,917.021,VALID,0,VALID,82.7471,VALID,264.273,VALID,25.8386,VALID,42,VALID,0.969477,
2006-10-16, 21:11:01,VALID,917.014,VALID,0,VALID,82.4101,VALID,288.148,VALID,25.8544,VALID,259,VALID,0.627858,
2006-10-16, 21:12:01,VALID,917.015,VALID,0,VALID,81.8074,VALID,318.221,VALID,25.9711,VALID,293,VALID,0.905887,
2006-10-16, 21:13:01,VALID,917.006,VALID,0,VALID,80.9898,VALID,378.044,VALID,26.0741,VALID,242,VALID,0.477921,